TIME,DELAY(SENSOR),PRES,OXYGEN,RAWTEMP,T(OPTODE),TCPHASE,FLUOR,BETA(BETA700),BETA(BETA412),BETA(BETA440),CDOM,C(CSC),ED(ED412.20),ED(ED444.00),ED(ED489.60),ED(ED554.30),LU(LU412.10),LU(LU443.90),LU(LU489.70),LU(LU554.70),COMP,TILTX,TILTY,CHECK
1354592064,5808,892.1599731445312000,32.9376907348632800,559.6021118164062000,4.4982280731201170,56.6064987182617200,56,99,99,79,82,15549,0,0,0,0,2147121545,2147775542,2147573293,2147567862,3139,3,13,11481
1354595660,5811,950.8300170898438000,38.2627182006835940,566.5349731445312000,4.2831878662109375,55.8457107543945300,55,101,101,77,81,15547,0,0,0,0,2147127963,2147771154,2147576182,2147570368,67,3,13,29446
1354599260,5810,961.4699707031250000,39.2010803222656250,566.9058837890625000,4.2716689109802250,55.7059211730957000,55,97,100,78,82,15545,0,0,0,0,2147125430,2147774198,2147570624,2147570294,383,3,13,3467
1354602860,5810,987.0000000000000000,40.2092094421386700,568.4055175781250000,4.2251000404357910,55.5653305053710940,54,103,101,78,82,15544,0,0,0,0,2147125248,2147775168,2147576932,2147568493,3308,2,13,9400
1354606460,5812,979.9799804687500000,40.8308486938476560,569.4669799804688000,4.1921229362487790,55.4865684509277340,54,98,100,78,82,15546,0,0,0,0,2147123538,2147771849,2147573385,2147572644,3380,3,13,26051
1354610060,5810,993.7800292968750000,40.8818092346191400,568.9896850585938000,4.2069530487060550,55.4720993041992200,54,98,99,77,82,15544,0,0,0,0,2147123657,2147772114,2147578569,2147568694,122,3,13,26138
1354613660,5810,991.4799804687500000,40.5880203247070300,568.9636230468750000,4.2077641487121580,55.5188407897949200,55,99,100,76,82,15544,0,0,0,0,2147123465,2147775643,2147575744,2147569618,3329,2,13,17280
1354617260,5810,994.4299926757812000,40.2041397094726560,568.6851806640625000,4.2164101600646970,55.5706901550293000,55,98,100,78,82,15543,0,0,0,0,2147126043,2147774253,2147575104,2147567149,109,3,13,26468
1354620860,5810,991.2399902343750000,40.3920783996582000,568.9633178710938000,4.2077732086181640,55.5480690002441400,55,99,101,79,82,15541,0,0,0,0,2147126546,2147775314,2147576704,2147572544,3594,3,13,60001
1354624460,5809,993.9199829101562000,40.8442802429199200,570.1442871093750000,4.1710782051086430,55.4886016845703100,55,98,100,78,83,15538,0,0,0,0,2147122468,2147771053,2147570569,2147570925,222,2,13,7887
1354628060,5812,994.2299804687500000,41.0889205932617200,570.2374877929688000,4.1681790351867680,55.4526405334472660,55,98,101,77,82,15542,0,0,0,0,2147126253,2147769810,2147572955,2147569645,267,3,13,15112
1354631660,5808,996.5499877929688000,41.4638710021972660,570.3781738281250000,4.1638088226318360,55.4060211181640600,54,99,100,77,82,15542,0,0,0,0,2147122660,2147773979,2147571044,2147567542,3066,2,13,28886
1354635260,5813,994.8499755859375000,40.9264411926269500,569.7891845703125000,4.1821122169494630,55.4729385375976560,55,100,100,78,83,15539,0,0,0,0,2147125165,2147776585,2147572937,2147571456,2847,2,13,12799
1354638860,5811,1000.3599853515625000,40.9811897277832000,569.6677246093750000,4.1858859062194820,55.4631004333496100,55,99,99,78,82,15538,0,0,0,0,2147125476,2147775158,2147574464,2147571282,181,3,13,47853
1354642460,5808,999.8300170898438000,40.4977607727050800,569.6010742187500000,4.1879558563232420,55.5394096374511700,54,98,101,75,82,15542,0,0,0,0,2147122203,2147775414,2147574893,2147566372,467,3,13,59713
1354646060,5812,1004.6699829101562000,40.0174598693847660,568.6787719726562000,4.2166099548339840,55.6001091003418000,54,99,100,78,83,15537,0,0,0,0,2147121206,2147772644,2147574582,2147569654,3356,2,13,37983
1354649660,5811,1005.6500244140625000,40.4077606201171900,569.4027709960938000,4.1941180229187010,55.5471305847168000,56,101,103,78,82,15538,0,0,0,0,2147125796,2147776969,2147574244,2147571721,3569,2,13,8464
1354653260,5811,1005.9500122070312000,40.7144088745117200,569.5811767578125000,4.1885738372802730,55.5067100524902340,55,97,100,78,82,15534,0,0,0,0,2147121417,2147772406,2147572562,2147569526,83,3,13,64749
1354656860,5807,1003.0999755859375000,40.1698913574218750,569.2133789062500000,4.2000007629394530,55.5798912048339840,55,97,100,78,82,15537,0,0,0,0,2147124900,2147770688,2147574381,2147570258,135,3,13,44995
1354660460,5808,999.1900024414062000,40.6864089965820300,570.0355224609375000,4.1744580268859860,55.5155410766601560,54,98,100,77,81,15530,0,0,0,0,2147126326,2147775744,2147576064,2147567634,376,3,13,47097
1354664060,5811,998.1300048828125000,40.9881896972656250,570.3444213867188000,4.1648597717285160,55.4715385437011700,54,100,100,78,82,15538,0,0,0,0,2147121856,2147776109,2147578057,2147571136,3524,3,13,20338
1354667660,5810,1001.0499877929688000,40.9370803833007800,569.9887084960938000,4.1759109497070310,55.4727401733398440,55,98,101,78,81,15532,0,0,0,0,2147120886,2147773238,2147575798,2147569664,3537,2,13,43918
1354671260,5808,1003.8300170898438000,40.2416496276855500,569.8142700195312000,4.1813302040100100,55.5777091979980500,55,96,99,79,82,15532,0,0,0,0,2147122486,2147773659,2147576457,2147573933,455,3,13,20888
1354674860,5809,1002.3099975585938000,40.0323410034179700,569.7559204101562000,4.1831469535827640,55.6059799194335940,55,100,101,78,82,15531,0,0,0,0,2147124909,2147775094,2147572480,2147571574,342,2,13,49487
1354678460,5811,1003.2800292968750000,40.9064102172851560,570.1632080078125000,4.1704897880554200,55.4789199829101560,55,96,100,77,82,15532,0,0,0,0,2147121526,2147769636,2147576448,2147571218,288,2,13,29891
1354682060,5808,1003.1199951171875000,41.3110618591308600,570.4152832031250000,4.1626529693603520,55.4280509948730500,55,99,99,78,82,15533,0,0,0,0,2147125211,2147771318,2147570980,2147571648,158,3,13,28835
1354685660,5809,1003.2199707031250000,41.1098403930664060,570.1586914062500000,4.1706299781799320,55.4532318115234400,55,103,99,78,82,15532,0,0,0,0,2147124105,2147770925,2147575552,2147566482,357,3,13,56144
1354689260,5810,1009.0000000000000000,40.7400817871093750,569.5681762695312000,4.1889801025390625,55.4992599487304700,55,99,100,76,82,15529,0,0,0,0,2147126144,2147771373,2147579044,2147566838,43,3,13,39237
1354692860,5809,1006.9199829101562000,40.7832489013671900,569.6077880859375000,4.1877460479736330,55.4914894104003900,55,98,100,79,81,15529,0,0,0,0,2147125001,2147771428,2147575241,2147567021,3514,2,13,48271
1354696460,5810,1007.7899780273438000,40.7067985534668000,569.7025146484375000,4.1848049163818360,55.5038604736328100,56,98,100,77,82,15527,0,0,0,0,2147124388,2147774189,2147571702,2147568475,46,3,13,39516
1354700060,5812,1008.7299804687500000,40.5507202148437500,569.5061035156250000,4.1909079551696780,55.5257797241210940,55,98,100,78,82,15529,0,0,0,0,2147124077,2147774198,2147572507,2147572096,54,3,13,50582
1354703660,5809,1007.3499755859375000,40.2537002563476560,569.8123779296875000,4.1813907623291020,55.5786705017089840,55,98,99,77,83,15526,0,0,0,0,2147122980,2147772845,2147573010,2147571675,409,2,13,32243
1354707260,5811,1007.8900146484375000,40.1798706054687500,569.9459228515625000,4.1772398948669430,55.5859985351562500,54,97,100,79,82,15526,0,0,0,0,2147126400,2147772745,2147572096,2147570322,202,2,13,9288
1354710860,5809,1007.6900024414062000,39.7080307006835940,569.8485717773438000,4.1802668571472170,55.6555900573730500,55,96,104,78,82,15525,0,0,0,0,2147125449,2147776557,2147572772,2147569435,168,3,13,63259
1354714460,5810,1004.8699951171875000,39.7221908569335940,569.8526000976562000,4.1801409721374510,55.6525306701660160,55,98,100,78,83,15525,0,0,0,0,2147122642,2147772260,2147571538,2147568429,3499,2,13,45385
1354718060,5812,1003.9299926757812000,40.1617202758789060,570.4183959960938000,4.1625580787658690,55.5922012329101560,54,97,100,79,82,15526,0,0,0,0,2147122678,2147776155,2147576566,2147569737,96,3,13,28712
1354721660,5809,1003.2800292968750000,40.9135284423828100,570.6287841796875000,4.1560192108154300,55.4891281127929700,55,98,100,79,82,15525,0,0,0,0,2147123081,2147779126,2147574555,2147569554,163,2,13,15911
1354725260,5810,1003.4299926757812000,40.4990310668945300,570.8538818359375000,4.1490230560302730,55.5541114807128900,55,98,101,78,82,15522,0,0,0,0,2147123282,2147774070,2147573732,2147567771,118,3,13,55224
1354728860,5812,1004.8599853515625000,40.1777496337890600,570.5629882812500000,4.1580638885498050,55.5970115661621100,55,99,100,78,83,15525,0,0,0,0,2147122688,2147781312,2147572288,2147570093,29,3,13,37438
1354732460,5810,1002.5499877929688000,40.1933097839355500,571.3250122070312000,4.1343798637390140,55.5993614196777340,55,98,100,79,82,15527,0,0,0,0,2147121636,2147780324,2147577782,2147571474,8,3,13,56510
1354735556,5811,1002.7899780273438000,40.7315902709960940,570.4561767578125000,4.1613831520080570,55.5076293945312500,54,99,100,77,81,15523,0,0,0,0,2147122194,2147777005,2147570825,2147570953,214,3,13,44134
